Powrót do katalogu

STARLINK-31226

AktywnyŁącznośćVLEO
NORAD 58858·PAYLOAD·🇺🇸 United States

Wystrzelony Jan 29, 2024 z Cape Canaveral Space Force Station

Loading…

Następne Przeloty (najbliższe 24 godziny)

TLE

ŚwieżeSource: CelesTrak SupGP

Epoka: Sep 14, 2026, 21:52 UTC

1 58858C 24019F   26257.91159722  .00029401  00000+0  10651-2 0  2575
2 58858  43.0024 260.4381 0001613 266.6468 316.6242 15.27557481    12

Śledź STARLINK-31226 w czasie rzeczywistym z AllMySat

Download on the App Store